Theta_e
335 338 340 340 342 345 346 348 350 351 354 358 361 361 362 364 365 359 358 360 356 363 358 356 362 360 357 356 355 356 355 349 345
336 339 340 340 342 344 345 348 351 352 354 358 360 359 362 363 363 364 359 362 362 356 360 357 362 360 356 356 356 355 353 347 344
334 339 341 342 344 344 346 348 349 352 354 357 359 358 360 361 362 363 363 363 364 366 363 361 359 354 356 356 356 354 352 346 343
332 333 335 337 339 344 346 348 350 351 352 354 356 357 359 360 360 361 362 360 364 364 362 362 359 355 353 354 353 352 349 345 341
331 333 334 337 339 343 344 346 349 350 352 352 354 356 359 358 360 360 358 359 363 363 361 360 358 356 353 352 352 350 344 338 334
333 334 335 337 340 342 344 346 352 352 353 353 354 356 356 356 358 358 358 360 362 362 361 359 357 355 354 350 344 341 337 331 330
340 339 337 338 340 341 345 349 354 355 355 355 356 357 356 359 359 359 360 362 362 361 360 358 357 355 352 348 343 341 330 326 326
344 346 347 349 347 348 346 349 353 355 357 364 363 361 360 359 361 359 361 361 361 362 360 355 352 350 349 349 345 332 322 323 324
338 340 342 349 354 356 350 347 351 355 358 361 362 361 360 363 367 361 360 361 360 360 357 354 351 348 347 345 333 324 322 324 324
334 335 335 337 344 349 356 348 351 354 358 361 361 362 357 361 365 361 361 360 359 357 353 352 346 348 348 346 342 324 324 327 325
334 336 338 340 338 343 352 356 351 356 358 359 359 358 356 360 362 360 360 359 358 356 352 351 350 349 348 346 340 323 324 326 327
334 336 339 340 341 342 356 358 360 358 358 358 358 356 357 357 358 359 355 354 354 353 350 350 350 348 347 345 339 322 322 324 325
335 337 341 342 344 345 345 358 361 361 360 360 358 360 361 361 359 357 354 352 352 353 351 349 348 346 346 338 338 320 320 322 320
338 340 339 345 347 350 353 363 361 360 361 360 363 364 365 366 362 358 356 342 341 339 338 346 347 345 345 342 336 327 318 317 324
337 338 338 344 348 351 355 362 362 361 361 365 367 366 363 359 355 346 340 338 334 333 330 330 334 341 343 339 338 324 317 316 318
334 336 338 344 349 348 350 355 359 357 363 367 364 364 351 345 341 338 337 341 337 332 329 327 330 332 335 334 334 331 318 316 317
333 335 336 340 345 347 349 353 355 358 361 361 360 351 343 340 337 335 339 340 338 333 331 328 328 329 332 333 332 330 326 324 320
334 336 337 340 344 349 351 353 355 357 358 356 352 345 339 338 339 337 339 341 337 333 333 329 330 331 332 331 330 328 319 317 321
336 337 340 341 342 347 350 352 355 354 355 355 349 341 337 337 338 338 338 332 328 312 316 311 310 313 324 333 318 309 307 305 305
332 337 338 340 343 347 350 354 351 353 354 353 348 343 338 335 332 335 335 332 329 327 315 305 304 305 306 311 311 304 302 300 301
Wind_Speed
2 9 12 16 18 16 16 17 16 16 16 15 16 16 16 13 14 10 9 8 7 6 6 7 10 9 8 7 7 6 5 5 3
7 7 8 11 14 16 17 17 17 17 16 17 17 17 14 14 13 12 11 11 10 9 9 6 10 9 9 9 8 7 7 5 4
8 6 6 8 9 12 14 16 16 17 16 16 16 16 14 13 13 12 11 10 9 8 7 9 10 8 9 8 8 8 6 6 5
4 3 6 6 7 8 10 12 13 16 16 15 15 16 15 13 14 15 13 12 10 10 11 12 12 9 7 9 8 7 5 6 6
5 1 1 5 6 7 9 11 13 14 14 15 16 16 14 15 15 14 15 14 13 13 13 12 12 12 10 9 8 7 6 7 8
7 3 4 4 6 6 7 10 12 14 15 15 15 15 16 16 15 15 14 13 13 13 13 13 13 12 12 10 9 8 4 4 8
8 6 5 5 3 6 8 9 12 13 14 14 14 15 16 15 15 14 13 13 13 13 14 13 12 11 11 11 11 10 8 4 7
10 9 9 8 6 3 5 9 12 12 13 13 12 12 11 12 12 12 13 13 13 13 13 11 11 11 11 11 10 8 8 6 4
10 9 9 9 8 6 0 9 11 12 12 13 13 15 14 13 11 14 14 14 14 13 13 13 13 11 11 12 9 15 15 14 11
5 5 5 6 8 8 7 4 9 11 12 13 15 16 13 14 12 13 14 14 15 14 14 14 13 14 14 14 11 17 14 10 9
5 6 6 5 5 7 7 4 5 8 10 13 13 14 11 11 13 13 12 13 14 15 13 15 14 14 13 13 10 17 14 10 10
6 6 6 4 6 6 2 4 3 6 10 14 15 16 13 13 13 13 12 12 13 12 12 12 11 12 14 13 12 17 15 12 11
6 7 7 7 6 5 5 3 4 6 9 12 15 15 15 14 12 13 12 11 10 10 8 9 8 10 12 12 13 15 16 13 9
6 7 9 9 7 6 2 1 5 6 8 10 10 12 13 12 13 15 15 15 14 11 10 5 2 7 11 12 13 16 16 15 9
6 8 10 10 9 6 3 3 5 7 8 8 8 9 7 7 12 11 15 19 15 13 20 15 2 5 7 9 12 14 14 13 9
6 7 8 8 8 9 5 3 5 7 7 6 8 9 9 13 15 16 16 16 15 12 13 12 14 7 8 9 10 11 14 12 5
7 7 7 8 9 10 10 7 7 7 5 6 5 7 8 11 14 15 16 11 8 7 10 13 18 18 13 11 12 12 13 12 9
8 10 9 8 9 10 10 8 7 6 5 3 6 8 9 11 10 13 12 10 11 10 11 14 13 13 12 13 14 12 14 12 12
8 10 11 11 12 11 9 7 6 5 3 4 6 7 7 8 8 9 8 7 6 12 4 6 4 11 9 14 16 19 17 13 10
9 11 12 12 13 12 7 5 3 2 3 5 7 8 7 5 6 7 8 9 10 10 7 13 8 5 7 10 18 20 18 15 13
Wind_Direction
156 178 187 199 199 201 200 199 198 194 190 196 195 199 202 202 206 203 211 203 194 187 188 208 158 179 179 161 166 156 142 141 103
117 149 174 191 199 199 202 201 200 200 192 195 196 197 196 199 203 213 205 210 198 190 194 168 173 172 177 176 170 165 156 120 125
103 130 161 188 197 211 203 208 195 196 200 198 194 195 197 197 199 201 206 206 205 192 167 179 169 167 177 184 172 164 175 149 119
103 135 166 193 194 196 215 208 203 197 199 195 197 199 195 199 195 197 197 199 197 182 178 173 178 164 166 179 179 168 156 109 120
69 66 222 178 182 180 192 190 194 196 200 198 200 198 192 194 198 195 193 199 188 180 173 174 176 171 166 168 179 162 152 152 126
84 89 135 145 158 166 186 181 191 193 196 199 199 195 196 197 201 195 197 193 189 176 173 173 171 178 173 163 157 145 111 125 134
58 61 84 78 164 167 189 184 193 194 196 200 200 196 205 199 203 194 185 189 184 177 169 172 173 178 175 169 164 147 143 152 119
54 50 54 56 49 86 195 191 195 198 194 200 191 190 216 217 197 203 190 184 187 178 167 165 168 169 173 175 159 148 135 113 96
75 58 45 38 33 23 52 198 202 195 192 193 187 191 204 199 198 192 197 183 187 178 168 163 162 162 171 170 164 148 150 147 158
53 20 18 6 356 24 16 212 201 194 192 192 196 202 225 169 187 192 193 192 188 177 172 158 162 168 174 176 153 149 162 186 158
54 37 5 2 355 356 352 341 202 194 192 205 211 207 216 195 191 194 183 188 188 177 173 169 177 169 174 170 148 155 158 191 165
37 28 14 358 337 340 328 295 252 207 195 200 209 213 213 198 195 187 172 179 187 178 171 168 180 174 171 174 145 158 159 187 170
11 16 6 351 333 287 305 263 203 207 212 211 216 217 208 201 183 181 174 170 160 149 167 173 179 179 174 170 160 162 165 195 181
343 342 347 357 7 44 353 251 232 234 233 232 221 219 211 203 165 174 154 129 128 113 56 24 253 183 180 175 167 170 174 205 195
330 333 338 341 344 353 343 192 238 258 255 255 234 224 198 153 156 144 146 147 139 153 132 131 338 275 202 187 169 172 186 199 243
318 318 319 317 319 317 326 341 309 293 293 266 241 228 153 152 148 153 161 157 164 166 145 150 146 172 235 195 180 175 170 189 188
299 310 311 313 308 308 317 344 336 316 304 286 220 160 167 163 163 167 164 160 180 178 151 158 163 167 201 203 189 178 175 189 185
303 311 313 316 304 296 299 326 327 330 327 235 188 175 172 177 177 184 176 179 171 180 187 176 175 178 172 178 193 184 162 168 186
309 309 309 305 303 293 301 323 334 342 316 179 177 168 182 189 183 192 179 151 143 40 105 103 238 177 206 177 138 132 150 160 158
314 296 299 295 293 287 291 290 307 284 163 165 173 177 179 179 176 176 171 171 172 163 75 75 68 145 173 133 137 149 147 146 134